Dewpoint
24 23 23 24 24 24 23 23 23 18 21 21 20 23 26 27 29 28 28 32 34 36 36 36 36 36 37 38 38 39 39 40 40 40 42 43 44 45
25 23 22 23 23 24 24 24 24 24 20 24 23 25 26 25 28 28 28 32 33 35 35 35 35 35 35 36 36 37 37 38 39 40 42 43 43 44
22 22 22 22 22 23 24 25 25 25 24 24 26 26 26 26 27 28 29 28 29 33 33 33 34 34 35 35 35 36 36 37 38 40 40 41 42 42
21 22 23 20 21 23 24 24 25 25 25 24 24 26 27 28 27 27 27 27 26 29 32 33 33 33 34 34 34 35 35 35 36 37 38 39 40 40
22 22 22 22 22 24 25 25 25 25 26 26 26 28 27 27 27 27 26 25 24 28 30 31 32 33 33 33 33 34 34 34 35 35 36 36 37 39
22 22 22 23 24 24 25 25 26 26 27 27 27 26 26 26 26 25 23 24 24 24 28 29 30 30 31 32 32 32 32 33 34 35 35 34 36 36
23 23 25 26 28 27 26 26 27 27 27 26 26 27 25 24 23 23 23 24 25 24 24 24 25 25 25 28 29 30 32 33 33 34 35 35 35 35
24 26 26 29 28 28 29 30 29 27 25 26 27 25 24 23 23 23 25 24 22 24 24 23 24 24 23 24 28 30 31 32 33 34 34 35 36 36
28 27 25 23 27 25 27 28 28 29 30 27 25 23 23 23 24 25 24 24 23 24 24 22 23 22 23 22 28 30 31 32 32 32 33 33 34 35
29 26 25 24 26 26 26 26 27 27 26 24 24 24 25 26 25 24 24 24 24 23 23 21 22 22 22 23 28 29 30 31 31 32 32 34 36 37
26 26 25 26 26 25 27 26 25 25 26 27 28 29 28 27 27 24 22 21 19 20 22 22 22 22 23 24 23 28 29 30 30 31 32 34 36 37
26 26 28 27 25 26 26 25 24 24 24 24 24 23 24 24 27 23 22 21 21 19 21 22 23 24 21 22 22 23 24 28 30 31 31 32 34 35
26 26 24 23 24 26 26 24 24 25 25 23 22 22 22 22 22 22 22 23 23 22 23 24 24 23 23 22 23 23 24 25 26 28 32 34 34 34
27 24 24 25 24 24 23 24 25 24 22 22 22 21 21 21 21 22 23 24 25 24 25 25 24 24 23 21 21 23 24 26 28 29 30 31 33 34
25 26 24 22 22 21 22 23 22 21 21 21 20 20 20 21 22 22 23 22 23 24 23 24 25 25 25 23 23 24 24 26 28 29 29 31 32 33
25 23 22 22 21 21 21 22 22 21 21 20 20 20 21 21 21 22 21 22 22 21 23 24 24 25 25 26 25 25 25 26 28 28 30 32 33 34
24 24 23 22 22 21 22 21 21 21 20 20 20 20 20 20 20 21 22 21 21 21 22 23 24 26 27 26 25 26 28 28 28 28 29 30 30 31
24 21 18 18 18 18 19 20 20 20 20 20 20 20 20 19 20 21 21 22 22 22 22 23 24 24 24 24 27 25 28 28 28 29 30 29 29 31
20 17 14 16 16 16 17 20 18 19 20 20 20 20 19 20 20 20 21 22 21 22 23 23 23 23 21 20 24 28 26 28 28 29 29 30 30 31
18 16 15 14 15 18 19 19 18 18 18 19 18 18 19 19 20 21 22 21 23 23 21 22 22 23 23 23 24 26 27 27 29 28 28 32 32 35
16 16 16 16 19 20 19 18 17 18 18 16 17 17 19 20 21 23 21 23 23 20 20 20 22 27 26 29 24 23 26 29 31 31 31 31 30 34
17 16 15 14 15 16 18 17 17 17 16 16 17 18 20 21 23 21 22 21 20 21 22 22 23 25 27 26 23 24 25 29 32 35 35 33 34 33
12 13 11 11 8 7 12 15 16 16 16 17 17 18 20 22 23 22 22 21 21 21 21 22 23 26 26 24 25 24 26 28 32 33 32 35 35 38
Lifted_Index
11 11 12 15 18 19 20 20 17 14 12 14 17 19 21 21 22 22 22 22 21 21 20 19 19 18 18 17 16 16 15 14 13 13 12 10 8 7
11 11 12 15 18 19 20 20 19 16 15 16 18 20 21 21 22 22 22 22 21 21 20 19 19 18 18 17 16 16 15 14 14 13 12 10 8 7
11 11 12 15 17 19 20 20 20 19 17 17 19 20 20 21 22 22 22 22 21 21 20 19 19 18 18 17 16 16 15 14 14 13 11 10 8 8
11 11 12 15 17 19 20 20 20 20 19 18 19 20 20 21 21 21 21 21 21 21 20 19 19 18 18 17 16 16 15 14 13 12 11 10 9 9
11 12 13 15 17 19 20 20 20 20 20 19 19 19 20 21 21 20 20 20 21 20 20 19 19 18 18 17 16 16 15 14 12 11 10 10 10 9
12 13 14 16 18 19 20 20 20 20 20 19 19 19 19 19 19 19 19 19 19 20 19 19 18 18 18 17 16 15 14 13 12 11 11 10 10 10
12 13 16 18 20 20 20 20 20 20 19 19 18 18 18 18 18 18 18 18 18 19 18 18 18 18 17 17 16 15 14 13 12 12 11 10 10 11
12 14 17 19 20 21 21 21 20 20 20 19 19 18 18 18 19 19 18 17 17 18 18 17 17 17 17 16 15 14 13 13 13 13 12 11 11 12
13 15 17 19 20 21 21 21 20 20 21 20 19 19 19 19 20 19 19 18 18 18 17 16 16 17 17 16 15 13 13 13 13 14 13 13 13 13
16 17 19 20 21 21 20 20 20 20 21 21 20 20 20 20 20 20 19 19 18 18 18 17 16 17 17 16 14 13 12 13 14 14 15 14 14 14
18 19 20 20 21 21 20 20 19 20 21 21 20 20 20 20 20 20 19 18 17 17 17 17 17 17 17 16 14 13 13 14 14 15 15 15 15 14
19 19 20 21 21 21 21 20 20 20 21 20 20 20 20 20 20 20 20 18 17 17 18 18 17 17 16 16 15 14 14 15 15 15 15 15 14 14
18 19 20 21 21 21 21 21 21 21 21 20 20 20 20 20 20 21 20 20 19 18 18 18 18 17 16 16 15 15 15 16 16 16 15 15 14 14
19 20 21 21 21 21 21 22 22 22 21 20 20 20 20 20 20 21 21 21 21 20 19 19 18 17 16 15 15 15 15 16 16 16 16 15 14 14
20 20 21 21 21 22 22 22 22 21 21 20 20 20 20 20 20 20 20 21 20 20 19 19 19 18 16 15 15 14 15 15 16 16 16 15 15 14
21 21 21 21 21 21 22 22 22 21 21 20 20 20 21 21 20 20 20 19 19 18 18 18 18 17 16 15 15 15 16 16 16 16 16 15 15 14
21 21 21 21 21 21 21 21 21 21 21 21 21 21 21 20 20 20 19 19 18 17 17 17 17 16 15 16 16 17 17 17 16 15 15 15 14 14
21 21 21 21 21 21 21 21 21 21 21 21 21 21 21 20 20 19 20 19 18 17 16 16 16 15 15 15 16 17 17 16 15 15 14 14 13 12
21 21 21 21 21 21 21 21 21 22 22 22 22 21 21 20 19 19 19 19 18 17 16 16 15 15 14 14 15 17 17 16 15 14 14 13 12 11
22 21 21 21 22 22 22 22 22 22 22 22 22 22 21 20 20 19 19 18 17 17 16 15 15 15 16 16 16 16 16 15 15 14 13 12 11 10
22 22 22 22 23 23 23 23 23 23 23 23 22 22 21 21 20 20 19 18 17 16 15 15 15 16 17 17 16 15 14 14 14 13 12 11 9 8
23 23 23 23 23 23 23 23 23 23 23 23 22 22 21 21 20 20 19 18 17 16 15 15 16 16 17 17 16 15 13 13 12 11 10 9 7 6
23 23 23 23 24 24 24 24 24 23 23 23 22 22 21 21 21 20 19 18 17 16 15 15 16 16 16 16 16 14 13 12 11 9 8 8 6 5